Wind_Speed
20 23 22 21 23 16 11 9 10 11 14 15 15 14 13 14 16 19 16 15 16 18 18 16 18 21 21 20 20 19 17 17 17 16 19 19 17 18 19 19 17 15 15 14 13 14 14 13 12
22 23 24 24 22 19 15 10 7 10 13 14 14 15 15 14 18 16 17 16 15 15 16 18 17 19 20 17 18 16 15 16 16 16 17 16 14 18 19 17 17 14 14 13 13 13 13 12 11
22 23 21 26 26 24 22 14 10 11 12 12 13 13 14 13 14 17 18 17 15 14 16 18 18 18 20 19 20 15 13 13 14 17 18 14 15 16 18 16 15 13 13 12 12 13 12 11 10
20 20 23 25 25 26 23 21 13 8 8 9 11 12 13 15 12 12 15 16 15 13 14 15 16 16 17 18 17 16 13 13 16 16 14 13 13 15 15 15 14 13 12 13 12 12 12 12 9
19 18 24 22 23 24 25 22 17 15 10 6 9 10 12 15 12 10 12 13 11 10 11 12 13 12 13 16 15 14 12 13 14 14 13 11 11 12 13 13 12 11 12 12 11 10 11 12 12
20 24 19 22 21 22 23 24 21 17 16 9 7 7 10 13 12 9 10 14 13 10 9 10 12 11 12 14 15 13 13 13 12 12 11 10 9 10 11 10 9 9 10 11 11 10 11 15 12
19 20 21 21 19 23 22 24 24 20 17 14 10 6 7 8 11 8 8 10 13 11 10 10 12 13 13 13 14 12 13 11 10 10 10 8 8 9 8 8 8 7 8 8 10 9 12 16 11
18 21 17 19 19 21 21 23 23 22 19 15 11 9 6 6 7 9 7 7 10 10 9 9 9 12 12 12 12 11 10 10 9 9 9 7 8 7 5 4 5 5 5 7 7 9 9 10 11
13 18 13 16 19 18 19 21 22 22 21 15 13 9 10 6 6 6 6 7 7 7 8 9 9 9 9 10 10 9 7 6 7 6 7 7 7 5 4 4 3 2 2 2 3 7 8 10 11
11 13 14 15 17 16 16 19 22 21 23 21 15 12 9 7 7 5 4 6 6 6 7 7 7 7 7 6 5 5 4 5 7 7 5 6 7 7 5 3 2 1 1 2 4 6 5 8 10
10 13 13 14 15 15 16 17 19 19 19 21 20 13 9 7 7 8 5 4 5 5 6 7 6 5 4 4 4 5 4 4 6 6 6 5 7 6 5 4 3 1 1 2 3 3 4 5 9
12 8 10 12 12 14 14 15 16 20 18 17 18 18 13 8 7 7 7 6 4 4 5 6 7 7 6 6 6 7 7 5 5 5 5 4 4 5 4 2 2 1 1 2 3 2 4 6 5
8 5 4 7 8 10 9 11 13 17 17 16 15 16 18 13 10 8 6 7 6 5 5 5 5 6 7 8 9 8 8 8 7 7 7 5 5 6 5 4 5 5 6 5 5 6 3 3 4
7 3 4 1 3 3 3 4 6 9 13 14 16 13 13 16 13 7 6 7 6 7 6 5 6 7 8 9 9 6 6 7 8 8 7 6 7 7 7 7 7 6 6 5 5 5 5 5 4
9 5 2 3 5 1 1 1 3 6 11 11 14 13 10 11 15 13 8 7 7 8 9 7 7 8 8 8 8 7 5 5 6 6 6 7 8 8 5 5 5 6 6 6 5 5 6 6 6
7 4 4 4 5 4 3 5 2 5 8 10 12 17 13 9 12 15 13 8 5 6 8 8 7 8 7 8 8 8 7 5 5 5 7 9 10 9 9 8 7 5 7 7 7 7 8 8 8
5 4 2 7 4 8 7 4 1 5 6 10 12 15 14 8 8 12 12 10 4 5 5 7 8 9 8 8 8 8 7 8 8 9 9 10 10 11 11 11 12 9 9 8 8 7 7 7 8
10 7 1 3 4 7 1 5 1 1 4 8 10 14 18 12 5 8 10 9 8 2 5 6 7 7 10 11 9 8 10 10 10 8 7 7 6 7 8 10 8 7 7 6 6 6 6 5 5
11 10 7 6 6 2 2 5 7 4 1 6 10 13 14 16 5 6 6 7 7 5 1 4 7 8 9 9 9 10 11 10 8 5 5 2 5 7 6 5 6 5 5 5 6 7 6 6 5
14 10 8 7 11 5 2 5 9 5 3 1 5 8 13 14 13 5 5 5 5 4 3 1 6 9 10 9 9 9 8 6 5 5 3 2 8 11 9 8 9 9 7 5 6 8 7 6 5
17 12 15 14 9 10 5 5 14 11 11 11 4 7 10 12 15 10 5 5 4 4 4 4 2 1 5 5 5 6 6 5 4 4 5 8 12 13 12 10 11 11 10 9 8 9 8 7 6
18 19 18 13 12 8 14 7 10 17 18 18 12 6 7 12 12 14 7 4 4 4 4 6 4 2 4 4 3 3 5 6 6 7 8 11 12 12 13 12 11 11 10 12 11 9 7 10 8
17 27 17 12 13 15 9 10 8 15 13 14 12 13 9 11 10 13 9 6 3 3 5 5 2 2 4 6 7 8 9 8 9 9 10 11 13 12 13 11 11 13 13 14 11 9 10 12 8
23 17 16 15 14 15 10 12 6 7 9 10 9 5 5 10 11 13 9 10 8 6 4 4 3 3 6 7 6 10 11 11 12 12 12 13 15 14 14 13 11 11 13 13 13 9 10 11 6
14 14 16 16 16 12 18 16 11 11 10 9 10 10 9 10 15 19 18 14 14 12 9 6 6 3 5 7 11 10 9 11 12 13 13 16 19 14 19 17 13 10 10 14 13 11 11 8 5
15 15 15 12 10 12 23 14 6 12 13 11 13 12 12 13 19 20 21 20 19 19 14 10 9 6 6 9 13 12 7 3 3 7 9 13 18 20 20 23 19 15 13 10 12 13 14 13 9
18 19 17 13 15 14 11 12 4 11 17 14 14 12 16 17 16 16 16 16 14 16 20 17 10 6 8 11 11 7 4 7 10 11 9 8 17 17 18 22 23 20 17 14 13 15 17 17 13
19 15 9 7 9 8 8 4 7 11 16 16 14 11 12 17 19 14 11 11 14 16 20 20 13 8 7 9 7 6 6 8 12 11 8 7 15 22 19 16 18 21 17 17 16 16 17 17 17
17 13 10 10 10 7 3 4 12 11 11 11 10 11 16 16 15 11 9 11 10 13 19 18 14 9 9 7 6 6 6 4 2 8 4 4 11 16 20 16 8 17 18 19 19 17 19 20 20
14 11 12 6 11 7 12 9 15 15 11 10 8 11 9 8 11 13 12 16 11 11 12 16 16 11 8 8 8 5 4 5 8 6 5 7 10 10 12 14 14 8 12 16 23 24 20 19 19
Wind_Direction
60 58 55 56 64 72 91 88 77 82 80 78 77 80 90 102 104 113 113 111 115 119 114 116 122 124 120 116 116 112 112 110 103 97 94 89 88 92 86 84 84 80 72 66 62 62 58 52 52
61 58 58 58 68 69 76 93 94 99 84 85 84 83 88 102 111 115 116 117 120 118 123 121 122 124 119 119 116 121 118 112 111 102 94 84 89 90 88 85 82 81 80 74 64 64 61 52 50
64 63 59 63 64 64 60 68 89 100 87 83 84 89 91 96 108 114 116 116 114 120 123 126 131 130 127 131 124 109 112 112 110 102 95 101 95 90 91 88 82 79 78 73 69 66 61 55 48
73 71 60 60 61 61 61 63 72 84 94 89 85 92 95 96 96 110 110 112 119 121 121 122 127 128 125 118 110 119 126 121 104 98 104 101 95 93 93 91 89 84 80 74 63 58 52 43 37
74 69 62 60 57 59 58 59 68 72 79 111 103 105 103 94 91 105 112 113 115 120 124 130 123 119 117 111 118 121 119 110 109 117 110 103 99 94 94 90 89 85 79 76 73 64 52 30 25
76 70 70 64 60 59 57 57 58 63 69 85 116 117 105 103 96 97 109 113 112 119 124 127 122 120 119 119 121 124 126 118 120 118 113 111 107 96 90 81 83 86 85 78 63 69 39 29 33
78 79 71 70 62 61 55 56 60 63 67 66 71 95 100 101 104 99 104 110 114 116 127 129 128 123 123 122 122 127 118 118 118 118 116 121 113 99 85 80 79 77 78 68 54 46 32 34 47
86 82 68 67 67 63 62 58 55 57 64 69 73 76 95 108 112 108 113 118 117 121 125 127 126 127 127 125 122 114 117 118 134 130 139 149 133 127 111 80 73 62 53 48 36 25 29 33 44
95 73 71 69 64 60 67 67 60 54 55 62 71 84 83 97 121 124 129 131 129 135 140 140 131 129 129 128 121 119 115 141 137 148 159 171 151 156 152 133 104 74 56 47 18 6 19 40 39
87 97 79 73 67 56 58 72 69 61 57 55 54 67 88 94 90 105 140 139 142 152 159 168 157 152 141 127 121 123 168 159 149 144 160 158 167 179 180 157 146 176 267 321 339 339 2 15 16
79 103 92 78 69 59 58 72 72 69 61 57 52 54 69 93 110 103 97 138 149 164 184 190 192 186 163 169 181 184 188 170 140 147 164 172 163 166 159 132 146 137 278 274 318 329 346 346 351
93 98 99 86 80 77 71 77 78 76 70 60 51 51 59 77 99 126 127 117 122 175 182 196 206 218 202 197 217 206 195 183 173 170 179 179 186 176 178 187 207 227 342 275 345 338 336 330 323
118 109 121 95 82 85 89 82 78 79 74 66 52 48 53 64 75 92 125 138 146 151 168 180 191 213 226 214 217 221 217 210 200 210 218 220 221 224 220 227 249 260 273 285 304 303 307 304 309
131 145 166 69 39 80 96 79 62 63 70 60 49 40 53 55 57 76 107 132 157 165 151 174 187 197 214 222 215 222 211 221 210 210 223 224 234 249 248 252 257 263 274 294 293 282 279 289 279
129 120 353 309 325 315 300 332 50 40 37 33 38 39 44 58 54 56 80 134 137 165 163 170 195 209 220 227 230 216 210 212 203 197 216 229 239 241 265 248 251 260 278 288 293 282 281 273 255
152 117 5 340 252 258 286 291 30 14 13 35 33 29 37 38 57 48 54 83 106 148 174 179 200 213 215 219 222 218 215 217 223 228 228 233 239 247 259 250 255 276 295 294 293 290 290 282 261
182 234 26 343 269 259 237 234 269 342 56 42 34 38 32 34 50 62 48 56 87 124 154 172 190 201 198 206 218 221 213 222 231 238 244 247 252 256 266 271 265 281 285 284 285 290 290 278 264
242 219 307 306 108 110 178 239 209 120 46 26 20 7 23 29 37 52 54 44 47 105 168 204 194 189 192 197 203 204 212 225 237 246 257 271 283 287 278 273 277 272 279 285 299 308 304 302 274
226 210 226 204 160 133 335 270 203 201 355 11 5 354 3 9 21 21 27 35 28 25 66 196 207 209 208 206 207 208 214 222 236 243 245 290 359 351 309 292 298 302 301 301 305 308 315 320 324
240 227 260 241 212 229 229 242 226 222 257 323 11 344 334 355 353 319 345 345 2 340 348 21 220 213 208 208 204 211 224 231 234 250 239 278 328 326 316 315 311 301 295 289 294 294 302 313 315
237 233 245 248 245 229 221 335 233 251 247 238 275 317 312 334 327 323 289 326 327 305 298 300 347 295 247 244 225 224 226 233 251 250 277 299 318 314 311 308 308 313 314 315 304 292 299 307 299
226 255 243 259 267 261 242 246 279 271 274 285 245 278 292 303 321 321 272 288 319 301 266 262 261 286 313 307 279 246 253 259 271 274 294 301 306 304 303 302 310 312 316 311 304 305 327 321 295
208 235 241 258 266 278 288 276 272 284 284 286 261 274 266 281 307 318 291 270 284 292 300 281 296 22 342 310 292 273 262 272 277 290 294 298 302 291 284 286 299 304 309 310 309 320 315 331 305
222 234 242 260 263 267 284 268 263 282 271 246 268 271 253 262 280 291 296 251 257 258 274 268 291 41 25 356 306 276 276 280 286 290 290 287 277 280 279 272 280 297 303 305 310 320 319 343 352
231 226 238 258 253 268 258 271 266 240 211 217 250 267 282 279 285 297 304 258 246 253 250 257 269 297 22 13 12 2 315 295 294 290 284 279 315 285 273 267 269 265 279 290 300 306 303 320 351
223 228 226 249 249 254 273 279 273 229 207 222 236 265 283 299 306 315 295 292 265 257 253 256 267 291 344 11 13 17 16 359 298 303 319 309 320 314 288 259 253 253 257 267 288 288 289 300 316
214 212 208 223 249 263 280 287 352 203 216 222 238 265 282 302 320 321 304 292 297 255 256 250 254 284 342 8 17 19 15 344 337 332 310 327 350 336 301 262 246 243 249 248 259 277 282 288 286
204 204 202 236 242 289 279 276 201 210 219 239 257 276 291 304 305 317 280 286 295 265 239 247 249 271 318 348 23 26 13 352 323 335 297 26 16 17 354 278 248 242 248 254 251 257 265 272 280
203 189 198 214 245 243 282 242 206 203 222 240 252 275 296 317 315 300 300 311 280 259 235 233 247 269 287 338 359 336 306 283 24 17 35 37 18 26 30 23 292 247 248 247 250 252 258 264 269
197 221 229 227 295 256 215 220 220 216 211 232 255 298 297 322 339 312 294 306 303 262 227 237 245 254 275 312 339 327 325 221 240 327 332 344 345 10 35 35 29 10 256 250 248 251 251 255 263
Height
5905 5904 5903 5901 5901 5900 5899 5899 5899 5898 5898 5897 5896 5897 5897 5896 5896 5898 5897 5898 5898 5898 5899 5902 5903 5905 5905 5905 5907 5909 5911 5913 5912 5912 5911 5910 5913 5914 5913 5912 5913 5914 5913 5912 5911 5911 5909 5908 5907
5908 5906 5906 5904 5906 5904 5902 5901 5900 5900 5900 5900 5899 5899 5899 5900 5900 5900 5900 5902 5902 5902 5903 5903 5905 5907 5906 5909 5910 5912 5914 5913 5913 5913 5914 5915 5916 5915 5914 5915 5915 5916 5916 5915 5914 5913 5912 5910 5908
5911 5910 5910 5908 5908 5907 5906 5904 5903 5902 5902 5902 5902 5902 5902 5903 5903 5904 5905 5905 5906 5907 5908 5908 5910 5910 5910 5913 5911 5913 5915 5915 5915 5914 5914 5917 5917 5917 5916 5917 5918 5918 5918 5917 5916 5915 5914 5912 5910
5915 5914 5912 5913 5911 5910 5909 5907 5906 5905 5904 5905 5904 5905 5905 5905 5906 5906 5906 5907 5909 5910 5910 5911 5913 5914 5914 5913 5912 5915 5918 5917 5915 5917 5919 5919 5918 5918 5919 5919 5920 5920 5920 5918 5917 5916 5916 5914 5912
5919 5916 5917 5915 5914 5913 5911 5911 5909 5907 5906 5907 5907 5907 5907 5907 5908 5909 5909 5909 5910 5911 5911 5913 5913 5915 5914 5913 5917 5918 5918 5917 5917 5920 5921 5921 5920 5920 5922 5921 5922 5922 5921 5920 5919 5917 5917 5916 5914
5921 5919 5922 5919 5917 5915 5914 5913 5910 5909 5908 5908 5908 5908 5908 5908 5910 5911 5911 5910 5912 5913 5913 5914 5914 5916 5916 5916 5919 5920 5920 5919 5921 5922 5922 5923 5924 5922 5923 5924 5923 5923 5923 5921 5920 5920 5918 5917 5914
5924 5925 5924 5922 5919 5918 5917 5915 5913 5912 5910 5910 5910 5909 5910 5911 5911 5913 5913 5913 5913 5915 5916 5916 5917 5918 5919 5921 5922 5922 5921 5922 5924 5924 5924 5926 5926 5925 5925 5925 5925 5925 5924 5923 5922 5921 5920 5918 5916
5928 5926 5929 5925 5922 5920 5920 5918 5917 5915 5913 5912 5911 5911 5912 5912 5913 5914 5915 5916 5916 5916 5918 5919 5920 5921 5922 5923 5924 5923 5924 5924 5925 5925 5925 5927 5927 5926 5926 5926 5925 5925 5925 5924 5923 5922 5921 5920 5918
5932 5934 5932 5928 5925 5923 5922 5921 5920 5919 5917 5915 5913 5913 5913 5913 5914 5915 5916 5916 5917 5919 5920 5922 5922 5923 5924 5925 5925 5925 5926 5927 5926 5927 5927 5927 5927 5927 5927 5926 5926 5926 5925 5925 5924 5923 5922 5921 5919
5934 5935 5933 5931 5929 5927 5925 5923 5923 5922 5919 5918 5916 5915 5913 5914 5914 5915 5916 5916 5917 5919 5921 5922 5924 5925 5925 5926 5926 5926 5928 5927 5927 5927 5927 5927 5926 5927 5927 5926 5926 5927 5926 5926 5925 5925 5923 5921 5919
5937 5936 5935 5933 5931 5930 5928 5927 5925 5923 5922 5920 5919 5917 5915 5914 5915 5915 5917 5917 5918 5919 5922 5923 5924 5925 5926 5927 5927 5927 5927 5928 5928 5927 5928 5927 5926 5926 5926 5926 5927 5926 5925 5925 5925 5924 5923 5921 5920
5939 5939 5937 5936 5934 5933 5931 5930 5928 5926 5926 5923 5922 5920 5917 5915 5915 5916 5916 5918 5919 5920 5922 5923 5924 5926 5926 5926 5927 5927 5927 5928 5927 5927 5927 5927 5927 5927 5926 5926 5927 5927 5926 5925 5925 5923 5923 5922 5920
5940 5940 5940 5939 5936 5935 5934 5931 5930 5928 5927 5926 5925 5923 5921 5918 5917 5916 5916 5917 5918 5919 5921 5922 5923 5924 5925 5925 5926 5927 5927 5927 5926 5927 5927 5927 5928 5927 5926 5927 5927 5927 5925 5925 5924 5924 5923 5923 5921
5941 5941 5941 5941 5940 5938 5936 5934 5932 5930 5929 5929 5928 5926 5923 5921 5920 5918 5917 5917 5917 5918 5919 5921 5922 5923 5924 5924 5925 5926 5926 5926 5926 5926 5927 5927 5928 5927 5927 5926 5927 5926 5925 5924 5924 5923 5923 5922 5920
5941 5942 5942 5942 5941 5939 5937 5936 5934 5932 5930 5929 5929 5928 5926 5924 5922 5921 5918 5916 5916 5917 5918 5920 5921 5922 5923 5924 5924 5926 5926 5926 5926 5926 5927 5927 5927 5927 5927 5926 5925 5925 5925 5924 5923 5922 5922 5921 5919
5940 5941 5942 5940 5940 5939 5939 5938 5936 5934 5932 5930 5930 5929 5928 5926 5923 5921 5919 5917 5917 5916 5917 5919 5920 5921 5922 5923 5923 5925 5926 5926 5926 5926 5926 5926 5925 5926 5926 5925 5924 5924 5924 5923 5922 5922 5921 5920 5919
5939 5945 5941 5939 5939 5939 5938 5938 5936 5934 5932 5931 5930 5930 5929 5927 5926 5923 5922 5920 5919 5918 5918 5918 5919 5919 5920 5921 5923 5924 5924 5924 5924 5924 5925 5925 5924 5925 5924 5923 5922 5921 5921 5921 5921 5920 5920 5919 5918
5941 5942 5939 5939 5939 5938 5938 5938 5936 5934 5933 5932 5931 5929 5928 5928 5927 5926 5924 5922 5921 5919 5918 5919 5919 5919 5919 5920 5921 5922 5922 5922 5922 5922 5922 5923 5924 5923 5923 5922 5921 5919 5919 5919 5919 5918 5918 5918 5916
5936 5940 5939 5938 5938 5937 5938 5937 5937 5935 5934 5934 5932 5931 5929 5928 5927 5926 5925 5923 5922 5922 5920 5919 5918 5919 5919 5919 5920 5921 5921 5921 5922 5922 5922 5923 5925 5925 5924 5922 5921 5919 5918 5918 5917 5917 5917 5916 5916
5931 5935 5938 5936 5936 5936 5937 5938 5938 5937 5936 5935 5933 5932 5930 5929 5928 5927 5926 5925 5923 5922 5922 5921 5919 5919 5919 5919 5919 5920 5921 5922 5923 5924 5924 5924 5925 5925 5924 5923 5922 5920 5918 5917 5916 5917 5916 5916 5915
5927 5932 5937 5934 5933 5935 5936 5939 5938 5938 5936 5934 5933 5932 5930 5928 5927 5926 5925 5925 5924 5922 5922 5922 5921 5920 5920 5921 5922 5922 5923 5924 5924 5924 5924 5925 5925 5924 5923 5922 5922 5921 5920 5918 5917 5916 5916 5915 5915
5926 5928 5928 5930 5931 5936 5933 5937 5937 5934 5935 5935 5933 5931 5930 5927 5927 5925 5925 5924 5923 5922 5922 5922 5922 5921 5922 5922 5923 5924 5924 5924 5924 5923 5923 5922 5922 5922 5921 5921 5920 5919 5919 5918 5918 5916 5914 5913 5913
5922 5922 5925 5927 5929 5930 5932 5933 5936 5934 5933 5933 5931 5930 5928 5926 5926 5925 5924 5924 5923 5922 5922 5922 5922 5921 5921 5921 5921 5921 5922 5923 5922 5922 5921 5920 5920 5918 5917 5916 5917 5917 5917 5917 5916 5915 5914 5911 5910
5917 5919 5922 5925 5927 5929 5932 5930 5933 5934 5931 5930 5928 5928 5927 5926 5924 5924 5924 5923 5922 5921 5921 5922 5922 5920 5920 5919 5918 5918 5919 5919 5919 5919 5918 5917 5916 5914 5913 5912 5912 5913 5915 5915 5914 5913 5913 5911 5909
5914 5918 5922 5926 5926 5927 5927 5926 5928 5927 5927 5928 5927 5925 5925 5925 5924 5923 5922 5922 5920 5919 5920 5920 5921 5920 5919 5919 5919 5918 5918 5919 5919 5918 5917 5915 5912 5910 5908 5908 5908 5909 5910 5911 5912 5913 5912 5911 5909
5912 5916 5922 5924 5927 5929 5923 5923 5925 5923 5924 5924 5923 5923 5923 5924 5923 5921 5919 5918 5919 5917 5917 5918 5919 5919 5919 5919 5920 5920 5920 5919 5918 5918 5917 5914 5911 5906 5903 5901 5903 5905 5905 5906 5908 5910 5910 5910 5909
5909 5912 5919 5921 5921 5921 5923 5920 5921 5920 5920 5922 5921 5922 5921 5921 5921 5919 5917 5915 5914 5914 5914 5914 5916 5918 5920 5920 5919 5919 5919 5919 5918 5917 5914 5912 5908 5902 5895 5894 5896 5898 5901 5901 5903 5906 5907 5907 5907
5905 5910 5914 5916 5919 5919 5920 5918 5923 5918 5919 5919 5920 5920 5920 5919 5918 5917 5915 5913 5910 5910 5910 5911 5914 5917 5919 5919 5919 5919 5920 5919 5917 5915 5913 5911 5906 5900 5892 5890 5891 5894 5896 5898 5897 5899 5902 5903 5903
5903 5905 5909 5914 5915 5917 5919 5920 5916 5915 5916 5917 5918 5919 5918 5917 5915 5914 5914 5912 5909 5906 5907 5910 5912 5915 5917 5918 5918 5918 5917 5917 5916 5914 5913 5910 5907 5900 5896 5891 5890 5891 5890 5892 5894 5894 5896 5897 5898
5901 5907 5910 5912 5913 5912 5912 5918 5914 5913 5914 5916 5917 5916 5916 5914 5913 5912 5912 5910 5908 5906 5906 5908 5909 5912 5915 5915 5915 5916 5915 5915 5913 5914 5912 5911 5908 5903 5898 5894 5893 5891 5889 5887 5888 5889 5889 5889 5891